Pittsfield, IL

7:06 PM CST on February 27, 2017 (GMT -0600)
Pittsfield Penstone Municipal

Weather History for KPPQ - October, 2013

Change the Weather History Date:

Wednesday, October 9, 2013

  Actual Average (KUIN) Record (KUIN)
Temperature  
Mean Temperature 59 °F -  
Max Temperature 74 °F 67 °F 89 °F (1938)
Min Temperature 44 °F 45 °F 27 °F (2000)
Degree Days  
Heating Degree Days 6    
Growing Degree Days 9 (Base 50)    
Moisture  
Dew Point 46 °F    
Average Humidity 69    
Maximum Humidity 93    
Minimum Humidity 32    
Precipitation  
Precipitation 0.00 in - - ()
Sea Level Pressure  
Sea Level Pressure 30.15 in    
Wind  
Wind Speed 3 mph (SE)    
Max Wind Speed 9 mph    
Max Gust Speed -    
Visibility 9 miles    
Events      
Averages and records for this station are not official NWS values.
T = Trace of Precipitation, MM = Missing Value Source: NWS Daily Summary

Daily Weather History Graph

Daily Weather History Graph

Search for Another Location

Airport or City:

Trip Planner

Search our weather history database for the weather conditions in past years. The results will help you decide how hot, cold, wet, or windy it might be!

Date:

Astronomy

Oct. 09, 2013 Rise Set
Actual Time 7:07 AM CDT 6:32 PM CDT
Civil Twilight 6:40 AM CDT 6:59 PM CDT
Nautical Twilight 6:09 AM CDT 7:30 PM CDT
Astronomical Twilight 5:37 AM CDT 8:01 PM CDT
Moon 12:02 PM CDT (10/9) 10:08 PM CDT (10/9)
Length of Visible Light 12h 19m
Length of Day
11h 25m
Waxing Crescent, 25% of the Moon is Illuminated
Oct 9
Waxing Crescent
Oct 11
First Quarter
Oct 18
Full
Oct 26
Last Quarter
Nov 3
New

Hourly Weather History & Observations

Time (CDT) Temp. Dew Point Humidity Pressure Visibility Wind Dir Wind Speed Gust Speed Precip Events Conditions
12:15 AM 54.9 °F 47.3 °F 76% 30.14 in 10.0 mi SE 5.8 mph - N/A   Clear
12:35 AM 54.3 °F 47.3 °F 77% 30.13 in 10.0 mi SE 5.8 mph - N/A   Clear
12:55 AM 53.6 °F 46.9 °F 78% 30.14 in 10.0 mi SE 4.6 mph - N/A   Clear
1:15 AM 53.6 °F 46.9 °F 78% 30.13 in 10.0 mi SE 5.8 mph - N/A   Clear
1:35 AM 53.1 °F 46.8 °F 79% 30.14 in 10.0 mi SSE 4.6 mph - N/A   Clear
1:55 AM 52.7 °F 46.8 °F 80% 30.15 in 10.0 mi SE 4.6 mph - N/A   Clear
2:15 AM 51.4 °F 46.4 °F 83% 30.15 in 10.0 mi Calm Calm - N/A   Clear
2:35 AM 50.4 °F 45.9 °F 85% 30.15 in 10.0 mi Calm Calm - N/A   Clear
2:55 AM 50.4 °F 46.0 °F 85% 30.15 in 10.0 mi Calm Calm - N/A   Clear
3:15 AM 49.1 °F 45.3 °F 87% 30.15 in 10.0 mi Calm Calm - N/A   Clear
3:35 AM 48.4 °F 44.8 °F 87% 30.15 in 10.0 mi Calm Calm - N/A   Clear
3:55 AM 47.5 °F 44.6 °F 90% 30.15 in 10.0 mi Calm Calm - N/A   Clear
4:15 AM 47.3 °F 45.0 °F 92% 30.15 in 10.0 mi Calm Calm - N/A   Clear
4:35 AM 45.7 °F 43.7 °F 93% 30.16 in 7.0 mi Calm Calm - N/A   Clear
4:55 AM 46.4 °F 44.6 °F 93% 30.16 in 10.0 mi Calm Calm - N/A   Clear
5:15 AM 45.7 °F 43.7 °F 93% 30.16 in 10.0 mi Calm Calm - N/A   Clear
5:35 AM 46.0 °F 43.7 °F 92% 30.17 in 10.0 mi Calm Calm - N/A   Clear
5:55 AM 45.7 °F 43.3 °F 92% 30.18 in 10.0 mi Calm Calm - N/A   Clear
6:15 AM 45.0 °F 42.6 °F 91% 30.18 in 10.0 mi Calm Calm - N/A   Clear
6:35 AM 44.6 °F 42.8 °F 93% 30.18 in 10.0 mi Calm Calm - N/A   Clear
6:55 AM 44.6 °F 42.6 °F 93% 30.18 in 10.0 mi Calm Calm - N/A   Clear
7:15 AM 44.2 °F 42.1 °F 92% 30.18 in 5.0 mi Calm Calm - N/A   Clear
7:35 AM 45.0 °F 43.2 °F 93% 30.18 in 4.0 mi Calm Calm - N/A   Clear
7:55 AM 47.3 °F 45.3 °F 93% 30.19 in 5.0 mi Calm Calm - N/A   Clear
8:15 AM 51.1 °F 47.7 °F 88% 30.20 in 7.0 mi Calm Calm - N/A   Clear
8:35 AM 53.4 °F 48.6 °F 84% 30.20 in 10.0 mi Calm Calm - N/A   Clear
8:55 AM 55.0 °F 49.5 °F 81% 30.20 in 10.0 mi ESE 3.5 mph - N/A   Clear
9:15 AM 57.2 °F 50.0 °F 77% 30.20 in 10.0 mi ESE 3.5 mph - N/A   Clear
9:35 AM 59.7 °F 50.7 °F 72% 30.20 in 10.0 mi Calm Calm - N/A   Clear
9:55 AM 61.2 °F 49.1 °F 65% 30.20 in 10.0 mi ESE 3.5 mph - N/A   Clear
10:15 AM 63.3 °F 49.6 °F 61% 30.20 in 10.0 mi SE 3.5 mph - N/A   Clear
10:35 AM 64.6 °F 49.5 °F 58% 30.21 in 10.0 mi SE 3.5 mph - N/A   Clear
10:55 AM 66.0 °F 48.6 °F 53% 30.21 in 10.0 mi SE 4.6 mph - N/A   Clear
11:15 AM 66.6 °F 48.0 °F 51% 30.20 in 10.0 mi Calm Calm - N/A   Clear
11:35 AM 68.4 °F 48.0 °F 48% 30.19 in 10.0 mi ESE 4.6 mph - N/A   Clear
11:55 AM 68.9 °F 45.1 °F 42% 30.19 in 10.0 mi ESE 5.8 mph - N/A   Clear
12:15 PM 68.7 °F 46.2 °F 44% 30.19 in 10.0 mi SE 3.5 mph - N/A   Clear
12:35 PM 69.8 °F 45.3 °F 41% 30.18 in 10.0 mi ESE 4.6 mph - N/A   Clear
12:55 PM 71.2 °F 45.9 °F 40% 30.17 in 10.0 mi ESE 3.5 mph - N/A   Clear
1:15 PM 71.8 °F 45.3 °F 39% 30.16 in 10.0 mi SSE 3.5 mph - N/A   Clear
1:35 PM 70.9 °F 43.5 °F 37% 30.16 in 10.0 mi ESE 5.8 mph - N/A   Clear
1:55 PM 72.0 °F 43.2 °F 35% 30.15 in 10.0 mi ESE 9.2 mph - N/A   Clear
2:15 PM 72.7 °F 44.4 °F 36% 30.14 in 10.0 mi SE 5.8 mph - N/A   Clear
2:35 PM 72.0 °F 43.2 °F 35% 30.14 in 10.0 mi SSE 3.5 mph - N/A   Clear
2:55 PM 72.7 °F 43.3 °F 35% 30.14 in 10.0 mi SE 5.8 mph - N/A   Clear
3:15 PM 73.6 °F 42.3 °F 32% 30.13 in 10.0 mi SSE 3.5 mph - N/A   Clear
3:55 PM 74.5 °F 43.5 °F 33% 30.12 in 10.0 mi SE 4.6 mph - N/A   Clear
4:15 PM 74.3 °F 43.9 °F 34% 30.12 in 10.0 mi East 3.5 mph - N/A   Clear
4:35 PM 73.8 °F 43.0 °F 33% 30.11 in 10.0 mi SSE 5.8 mph - N/A   Clear
4:55 PM 74.1 °F 43.0 °F 33% 30.11 in 10.0 mi SSE 3.5 mph - N/A   Clear
5:15 PM 74.1 °F 44.1 °F 34% 30.11 in 10.0 mi Calm Calm - N/A   Clear
5:35 PM 72.9 °F 43.3 °F 35% 30.11 in 10.0 mi Calm Calm - N/A   Clear
5:55 PM 70.9 °F 49.1 °F 46% 30.11 in 10.0 mi Calm Calm - N/A   Clear
6:15 PM 68.2 °F 50.7 °F 54% 30.11 in 10.0 mi Calm Calm - N/A   Clear
6:55 PM 62.4 °F 50.2 °F 64% 30.11 in 10.0 mi ESE 4.6 mph - N/A   Clear
7:15 PM 59.9 °F 49.5 °F 68% 30.11 in 4.0 mi SE 3.5 mph - N/A   Haze
7:35 PM 59.7 °F 50.0 °F 70% 30.11 in 3.0 mi Calm Calm - N/A   Haze
7:55 PM 57.9 °F 49.5 °F 73% 30.12 in 3.0 mi Calm Calm - N/A   Haze
8:15 PM 55.6 °F 49.5 °F 80% 30.12 in 7.0 mi Calm Calm - N/A   Clear
8:35 PM 54.7 °F 50.0 °F 84% 30.12 in 10.0 mi Calm Calm - N/A   Clear
8:55 PM 54.1 °F 49.6 °F 85% 30.12 in 10.0 mi Calm Calm - N/A   Clear
9:15 PM 53.4 °F 48.7 °F 84% 30.12 in 10.0 mi Calm Calm - N/A   Clear
9:35 PM 53.4 °F 48.6 °F 84% 30.12 in 10.0 mi Calm Calm - N/A   Clear
9:55 PM 52.7 °F 48.9 °F 87% 30.12 in 10.0 mi Calm Calm - N/A   Clear
10:15 PM 52.3 °F 48.4 °F 86% 30.13 in 10.0 mi Calm Calm - N/A   Clear
10:35 PM 52.2 °F 48.7 °F 88% 30.13 in 10.0 mi Calm Calm - N/A   Clear
10:55 PM 51.8 °F 48.4 °F 88% 30.13 in 10.0 mi Calm Calm - N/A   Clear
11:15 PM 51.4 °F 48.2 °F 89% 30.13 in 10.0 mi Calm Calm - N/A   Clear
11:55 PM 50.5 °F 47.1 °F 88% 30.13 in 10.0 mi Calm Calm - N/A   Clear